Regional Weather Roundup
Issued by NWS

Home | Current Version | Previous Version | Graphics & Text | Print | Product List | Glossary Off
Versions: 1 2 3 4 5 6 7 8 9 10 11 12 13 14 15 16 17 18 19 20 21 22 23 24 25 26 27 28 29 30 31 32 33 34 35 36 37 38 39 40 41 42 43 44 45 46 47 48 49 50

000
ASUS43 KMKX 261920
RWRWI

WISCONSIN REGIONAL WEATHER ROUNDUP
NATIONAL WEATHER SERVICE MILWAUKEE/SULLIVAN WI
100 PM CST MON JAN 26 2015

NOTE: "FAIR" INDICATES FEW OR NO CLOUDS BELOW 12,000 FEET WITH NO
SIGNIFICANT WEATHER AND/OR OBSTRUCTIONS TO VISIBILITY.

WIZ001-002-006>008-014>016-023>028-262000-
NORTHWEST WISCONSIN

CITY           SKY/WX    TMP DP  RH WIND       PRES   REMARKS
SUPERIOR ARPT  MIX PCPN  27  26  94 CALM      29.70R
ASHLAND        CLOUDY    25  19  78 SW7       29.70F WCI  17
HAYWARD        CLOUDY    23  20  88 S6        29.69F FOG     WCI  16
SIREN          CLOUDY    31  30  95 CALM      29.69F
CUMBERLAND     CLOUDY    27  23  86 S3        29.69S FOG
RICE LAKE      MIX PCPN  24  22  90 SE5       29.72S WCI  18
CHETEK         LGT SNOW  24  22  92 CALM      29.71F
LADYSMITH      CLOUDY    23  21  92 S6        29.73S FOG     WCI  16
EAU CLAIRE     CLOUDY    25  22  88 SE6       29.72S WCI  18
MENOMONIE      CLOUDY    28  26  93 SE5       29.72S FOG     WCI  22
NEW RICHMOND   CLOUDY    37  31  80 NW9       29.70F WCI  30
OSCEOLA        CLOUDY    38  32  79 NW7       29.73F WCI  32
$$

WIZ003>005-009-010-017-018-262000-
NORTH CENTRAL WISCONSIN

CITY           SKY/WX    TMP DP  RH WIND       PRES   REMARKS
MANITOWISH WTR LGT SNOW  19  15  86 S10       29.70S WCI   7
ARBOR VITAE    LGT SNOW  20  17  84 SE7       29.70F WCI  12
WOODRUFF       LGT SNOW  20  17  84 SE7       29.70F WCI  12
RHINELANDER    LGT SNOW  18  14  84 SE10      29.72F VSB 1   WCI   6
EAGLE RIVER    LGT SNOW  19  13  77 S10       29.71F WCI   8
LAND O LAKES   LGT SNOW  22  16  77 S7        29.71F WCI  13
PHILLIPS       FLURRIES  19  17  89 S6        29.70S WCI  11
TOMAHAWK       LGT SNOW  18  15  87 S5        29.73F WCI  11
MEDFORD        LGT SNOW  19  17  91 S8        29.72S WCI   9
MERRILL        LGT SNOW  18  16  90 S7        29.75F WCI   9
$$

WIZ029-030-035-036-043>047-262000-
CENTRAL WISCONSIN

CITY           SKY/WX    TMP DP  RH WIND       PRES   REMARKS
WAUSAU         LGT SNOW  18  16  92 SE8       29.75S FOG     WCI   8
MOSINEE        LGT SNOW  18  18 100 SE7       29.76F WCI   8
MARSHFIELD     LGT SNOW  21  18  88 SE12      29.74F FOG     WCI   9
STEVENS POINT  MIX PCPN  19  16  90 SE6       29.78F WCI  10
WAUPACA        LGT SNOW  24  19  82 SE7       29.82F WCI  16
WAUTOMA        CLOUDY    21  19  93 SE9       29.82F WCI  11
WISC RAPIDS    CLOUDY    21  18  88 SE7       29.78F FOG     WCI  12
CAMP DOUGLAS   FRZ DRZL  23  23 100 S7        29.77S FOG     WCI  15
$$

WIZ011>013-019>022-031-037>040-048>050-262000-
NORTHEAST WISCONSIN

CITY           SKY/WX    TMP DP  RH WIND       PRES   REMARKS
ANTIGO         LGT SNOW  17  13  86 SE13G18   29.75F WCI   3
SHAWANO        FLURRIES  25  19  76 S8        29.84F WCI  17
OCONTO         CLOUDY    24  21  89 CALM      29.86F
STURGEON BAY   CLOUDY    25  18  74 S9        29.87F WCI  15
GREEN BAY      LGT SNOW  25  21  85 S9        29.84F FOG     WCI  15
MANITOWOC      LGT SNOW  27  21  80 S9        29.86F WCI  17
APPLETON       LGT SNOW  23  19  86 SE10      29.84F VSB 3/4 WCI  12
CLINTONVILLE   LGT SNOW  23  19  86 S9        29.83F WCI  13
OSHKOSH        SNOW      24  19  81 S7        29.84F VSB 1/2 WCI  16
$$

WIZ032>034-041-042-053>061-262000-
SOUTHWEST WISCONSIN

CITY           SKY/WX    TMP DP  RH WIND       PRES   REMARKS
LA CROSSE      CLOUDY    27  23  85 S9        29.76S WCI  18
SPARTA         CLOUDY    25  24  96 S3        29.76F FOG
VIROQUA        CLOUDY    24  24 100 S9        29.73F WCI  14
BOSCOBEL       CLOUDY    24  21  88 VRB5      29.80F FOG     WCI  18
PRAIRIE DU CHI CLOUDY    27  22  84 SE6       29.78F WCI  20
PLATTEVILLE    CLOUDY    23  20  89 SE10      29.79S WCI  12
$$

WIZ056-057-062-063-064-067-068-262000-
SOUTH CENTRAL WISCONSIN

CITY           SKY/WX    TMP DP  RH WIND       PRES   REMARKS
REEDSBURG      CLOUDY    21  19  93 S5        29.77F FOG     WCI  15
BARABOO/DELLS  CLOUDY    21  19  91 SE8       29.78F FOG     WCI  12
LONE ROCK      CLOUDY    23  19  85 SE6       29.80F FOG     WCI  16
MINERAL POINT  LGT SNOW  23  21  93 S9        29.78F WCI  13
MADISON        LGT SNOW  21  17  84 S10       29.82S FOG     WCI  10
MIDDLETON      CLOUDY    23  19  85 S6        29.82S WCI  16
WATERTOWN      LGT SNOW  24  22  89 S8        29.84S WCI  16
MONROE         CLOUDY    21  21 100 S12       29.80F WCI   9
JANESVILLE     CLOUDY    25  19  80 S5        29.84  WCI  19
$$

WIZ051-052-058>065-066-070>072-262000-
SOUTHEAST WISCONSIN

CITY           SKY/WX    TMP DP  RH WIND       PRES   REMARKS
MILWAUKEE      CLOUDY    27  15  61 S9        29.87F WCI  18
WAUKESHA       CLOUDY    25  14  63 S7        29.86F WCI  17
MILWAUKEE/TIMM CLOUDY    27  16  63 S7        29.87F WCI  19
RACINE         CLOUDY    27  17  66 S8        29.88F WCI  19
BURLINGTON     FLURRIES  26  18  72 S8        29.85F WCI  17
KENOSHA        CLOUDY    27  17  66 S7        29.87F WCI  19
FOND DU LAC    LGT SNOW  25  19  78 S8        29.84F VSB 1   WCI  16
SHEBOYGAN      CLOUDY    26  16  65 S8        29.87F WCI  18
WEST BEND      LGT SNOW  27  18  69 S6        29.85S WCI  20
JUNEAU         LGT SNOW  23  20  87 SE9       29.84F WCI  13
$$

LSZ147-162-262000-
LAKE SUPERIOR

STATION/POSITION TIME  TEMP    WIND        PRES    WAVE
                       AIR SEA DIR/SP/G            HT/PER
                 (UTC) (F)     (DEG/KT/KT) (MB)    (FT/S)
DEVILS ISLAND    1900   24     160/  5/  7 1007.3F
PORT WING        1840   26     200/  4/  6 1006.1S
SAXON HARBOR     1840   26     190/  2/  7 1006.4F
$$

LMZ867-665-643>646-262000-
LAKE MICHIGAN

STATION/POSITION TIME  TEMP    WIND        PRES    WAVE
                       AIR SEA DIR/SP/G            HT/PER
                 (UTC) (F)     (DEG/KT/KT) (MB)    (FT/S)
NORTHPORT PIER   1817   25     160/  9/ 17 1012.5F
SISTER BAY       1728   26     170/  7/  9   N/A
KEWAUNEE LAKESHO 1800   26     180/ 10/ 14 1011.7S
SHEBOYGAN LAKESH 1900   26     190/ 11/ 14 1012.9F
PORT WASHINGTON  1840   28     180/  6/ 10 1012.5F
MILWAUKEE LAKESH 1900   27     190/  6/  8   N/A
KENOSHA   LAKESH 1900   26     160/ 10/ 13 1011.9F
$$

TC  - TEMPERATURE IN CELSIUS
VSB - VISIBILITY IN STATUTE MILES
WCI - WIND CHILL INDEX
HX  - HEAT INDEX



USA.gov is the U.S. government's official web portal to all federal, state and local government web resources and services.